Regional Weather Roundup
Issued by NWS

Home | Current Version | Previous Version | Graphics & Text | Print | Product List | Glossary On
Versions: 1 2 3 4 5 6 7 8 9 10 11 12 13 14 15 16 17 18 19 20 21 22 23 24 25 26 27 28 29 30 31 32 33 34 35 36 37 38 39 40 41 42 43 44 45 46 47 48 49 50
919
ASUS43 KMPX 270301
RWRMN
WEATHER ROUNDUP FOR MINNESOTA
NATIONAL WEATHER SERVICE TWIN CITIES/CHANHASSEN MN
1000 PM CDT THU APR 26 2018


NOTE: "FAIR" INDICATES FEW OR NO CLOUDS BELOW 12,000 FEET WITH NO
SIGNIFICANT WEATHER AND/OR OBSTRUCTIONS TO VISIBILITY. N/A MEANS
CURRENT SKY AND/OR WEATHER CONDITIONS ARE NOT AVAILABLE.

MNZ060>063-068>070-270400-
   Twin Cities Metro

CITY           SKY/WX    TMP DP  RH WIND       PRES   REMARKS
TWIN CITIES    FAIR      52  25  35 N8        29.93R
ST PAUL        FAIR      53  24  32 NW9       29.93R
CRYSTAL        FAIR      50  23  34 NW6       29.93R
BLAINE         FAIR      48  21  34 NW6       29.93R
LAKEVILLE      FAIR      45  28  53 NW6       29.93R
EDEN PRAIRIE   FAIR      52  28  39 NW9       29.93R
SOUTH ST PAUL  FAIR      54  23  29 N10       29.92R
LAKE ELMO      FAIR      50  27  40 NW6       29.92S
$$
MNZ001>005-007-008-013>017-022>024-027-028-270400-
   Northwest Minnesota

CITY           SKY/WX    TMP DP  RH WIND       PRES   REMARKS
BEMIDJI        FAIR      44  23  43 S6        29.89F
HALLOCK        CLOUDY    57  28  33 SE14G21   29.77F
ROSEAU         DRIZZLE   48  36  61 CALM      29.83R
WARROAD        FAIR      46  30  53 S3        29.82F
THIEF RVR FALL MOCLDY    47  33  58 S12       29.84F
CROOKSTON      MOCLDY    52  34  50 S15       29.84F
FOSSTON        FAIR      45  27  49 SE7       29.87F
DETROIT LAKES  FAIR      46  32  57 CALM      29.93F
MOORHEAD       FAIR      48  34  57 S9        29.90F
PARK RAPIDS    FAIR      43  27  53 S5        29.91F
MAHNOMEN       FAIR      43  32  65 S8        29.89F
$$
MNZ006-009>011-018-025>026-270400-
   North Central Minnesota

CITY           SKY/WX    TMP DP  RH WIND       PRES   REMARKS
BAUDETTE       MOCLDY    44  25  47 SE6       29.83F
FLAG ISLAND    DRIZZLE   39  23  52 SW5       29.86R
INTL FALLS     FAIR      39  24  55 SE3       29.87F
WASKISH        MOCLDY    37  25  60 S3        29.87F
BIG FORK       FAIR      36  25  64 CALM      29.89F
LONGVILLE      FAIR      36  25  64 CALM      29.93S
GRAND RAPIDS   FAIR      45  19  35 W6        29.92F
CRANE LAKE     FAIR      28  23  80 CALM      29.91F
ORR            FAIR      36  19  51 CALM      29.87F
COOK           FAIR      36  25  64 CALM      29.90S
WALKER         FAIR      42  20  41 CALM      29.92S
$$
MNZ012-019>021-037-270400-
   Northeast Minnesota

CITY           SKY/WX    TMP DP  RH WIND       PRES   REMARKS
DULUTH         FAIR      45  20  36 N3        29.90R
ELY            FAIR      34  25  69 CALM      29.89S
HIBBING        FAIR      31  20  63 CALM      29.89S
EVELETH        FAIR      33  22  61 CALM      29.91S
DULUTH HARBOR  FAIR      41  34  75 NE6       29.91S
TWO HARBORS    FAIR      39  25  56 CALM      29.89R
SILVER BAY     FAIR      36  27  69 CALM      29.89R
GRAND MARAIS     N/A     33  26  75 CALM      29.90S
G MARAIS ARPRT FAIR      30  21  69 N5        29.89S WCI  25
$$
MNZ029>031-032-039>041-046>048-054>057-064-270400-
   West Central Minnesota

CITY           SKY/WX    TMP DP  RH WIND       PRES   REMARKS
FERGUS FALLS   FAIR      45  30  57 S5        29.92F
WHEATON        PTCLDY    46  34  61 S7        29.98F
MORRIS         CLEAR     43  36  75 SW5       29.96F
ALEXANDRIA     FAIR      45  28  51 S3        29.97F
ELBOW LAKE     FAIR      42  34  72 E6        29.96S
WADENA         FAIR      39  28  65 CALM      29.94S
GLENWOOD       FAIR      43  28  56 CALM      29.97F
APPLETON       CLEAR     43  34  70 CALM      29.99S
BENSON         CLEAR     41  34  75 CALM      30.00F
ORTONVILLE     CLEAR     45  36  70 S5        30.00S
MADISON        CLEAR     48  39  71 S5        30.01S
WILLMAR        FAIR      45  28  53 CALM      30.01F
$$
MNZ033>034-036-042>043-049>051-058-059-270400-
   Central Minnesota

CITY           SKY/WX    TMP DP  RH WIND       PRES   REMARKS
ST CLOUD       FAIR      45  27  49 NW8       29.95R
SAUK CENTRE    FAIR      42  29  60 CALM      29.97S
PAYNESVILLE    FAIR      40  30  67 W5        29.97F
AITKIN         FAIR      32  25  74 CALM      29.92S
PINE RIVER     FAIR      37  21  52 CALM      29.96F
BRAINERD       FAIR      48  21  34 W7        29.94S
STAPLES        FAIR      41  21  45 CALM      29.94F
LONG PRAIRIE   FAIR      37  28  70 CALM      29.96F
LITTLE FALLS   FAIR      43  18  36 CALM      29.95F
LITCHFIELD     FAIR      48  28  46 NW6       29.98S
BUFFALO        FAIR      50  28  41 W9        29.96R
MAPLE LAKE     FAIR      48  30  50 W8        29.97R
HUTCHINSON     FAIR      47  30  52 NW7       29.99S
$$
MNZ037-044-045-052-053-270400-
   East Central Minnesota

CITY           SKY/WX    TMP DP  RH WIND       PRES   REMARKS
PRINCETON      FAIR      39  28  65 CALM      29.95R
MORA           FAIR      41  23  48 NW3       29.95R
CAMBRIDGE      FAIR      48  28  46 CALM      29.93S
RUSH CITY      FAIR      48  23  38 NW6       29.92S
MOOSE LAKE     FAIR      45  23  42 NW5       29.90R
HINCKLEY       FAIR      48  25  40 NW6       29.92R
CLOQUET        FAIR      39  12  33 NW3       29.91R
MCGREGOR       FAIR      45  23  42 W3        29.92S
$$
MNZ071>073-080-081-089-090-097-098-270400-
   Southwest Minnesota

CITY           SKY/WX    TMP DP  RH WIND       PRES   REMARKS
MONTEVIDEO     CLEAR     46  34  61 W3        30.00F
GRANITE FALLS  CLEAR     42  36  79 W5        30.02S
CANBY          CLEAR     46  39  77 CALM      30.03R
MARSHALL       CLEAR     45  37  73 W5        30.03R
REDWOOD FALLS  CLEAR     47  31  53 NW6       30.00R
OLIVIA         CLEAR     43  32  65 NW3       29.99S
PIPESTONE      CLEAR    N/A N/A N/A CALM      30.03R
WINDOM         CLEAR     43  25  49 NW7       30.02S
WORTHINGTON    CLEAR     43  36  76 NW5       30.04R
JACKSON        CLEAR     45  32  61 NW10      30.03R
TRACY          CLEAR     47  37  68 W5        30.02S
SLAYTON        CLEAR     42  37  81 NW6       30.03S
$$
MNZ065>067-074>077-082>085-091>093-270400-
   South Central Minnesota

CITY           SKY/WX    TMP DP  RH WIND       PRES   REMARKS
MANKATO        FAIR      49  31  49 NW15      29.97R
NEW ULM        CLEAR     46  30  53 NW13      29.99S
ST JAMES       CLEAR     46  34  61 NW12      30.01R
FAIRMONT       CLEAR     47  32  56 NW14      30.00R
GLENCOE        FAIR      49  32  52 W13       29.96S
OWATONNA       FAIR      48  36  61 NW13      29.94R
WASECA         FAIR      45  32  61 NW13      29.97R
ALBERT LEA     FAIR      50  28  43 NW9G17    29.95R
$$
MNZ078>079-086>088-094>096-270400-
   Southeast Minnesota

CITY           SKY/WX    TMP DP  RH WIND       PRES   REMARKS
ROCHESTER      FAIR      47  34  60 W10       29.91R
RED WING       FAIR      54  19  26 N6        29.90R
STANTON        FAIR      49  29  46 NW8       29.91S
DODGE CENTER   FAIR      48  34  57 NW9       29.92R
WINONA         FAIR      54  32  43 NW13G18   29.86R
AUSTIN         FAIR      48  34  57 NW13      29.93R
PRESTON        FAIR      51  30  45 N8        29.90R
$$
ABBREVIATIONS USED IN REMARKS
   TC - TEMPERATURES IN CELSIUS
  WCI - WIND CHILL INDEX
   HX - HEAT INDEX
  VSB - VISIBILITY
$$




USA.gov is the U.S. government's official web portal to all federal, state and local government web resources and services.